CW9723 Weather Reports


time (UTC)temp
C
wind
direction
speed
KPH
gust
KPH
rain 1hr
cm
rain 24hr
cm
rain mn
cm
humidity
%
barometer
mb
20260509113742 7 169 3.2 6.4 0.00 0.36 0.00 93 1008.6
20260509113242 7 169 1.6 4.8 0.00 0.36 0.00 92 1008.7
20260509112742 7 189 1.6 4.8 0.00 0.36 0.00 92 1008.8
20260509112242 7 0 1.6 4.8 0.00 0.36 0.00 92 1008.7
20260509112007 7 146 1.6 4.8 0.00 0.36 0.00 92 1008.8
20260509111242 7 0 1.6 3.2 0.00 0.36 0.00 92 1008.8
20260509110754 7 0 1.6 3.2 0.00 0.36 0.00 92 1008.7
20260509110242 7 0 1.6 3.2 0.00 0.36 0.00 92 1008.7
20260509105742 7 293 1.6 3.2 0.00 0.36 0.00 92 1008.6
20260509105242 6 0 1.6 3.2 0.00 0.36 0.00 92 1008.6
20260509104742 6 134 1.6 3.2 0.00 0.36 0.00 92 1008.6
20260509104507 6 131 1.6 3.2 0.00 0.36 0.00 93 1008.6
20260509103742 6 0 1.6 3.2 0.00 0.36 0.00 93 1008.6
20260509103238 6 132 1.6 3.2 0.00 0.36 0.00 93 1008.5
20260509102745 6 156 1.6 3.2 0.00 0.36 0.00 92 1008.5
20260509102739 6 130 1.6 3.2 0.00 0.36 0.00 92 1008.5
20260509102001 6 165 1.6 3.2 0.00 0.36 0.00 92 1008.5
20260509101239 6 138 1.6 3.2 0.00 0.36 0.00 92 1008.5
20260509100959 6 158 0.0 3.2 0.00 0.36 0.00 91 1008.6
20260509100239 6 141 0.0 1.6 0.00 0.36 0.00 91 1008.6
20260509100007 6 0 0.0 3.2 0.00 0.36 0.00 92 1008.6
20260509095239 6 0 0.0 3.2 0.00 0.36 0.00 91 1008.6
20260509094739 6 0 0.0 3.2 0.00 0.36 0.00 92 1008.6
20260509094239 6 220 0.0 3.2 0.00 0.36 0.00 92 1008.6
20260509094220 6 0 0.0 1.6 0.00 0.36 0.00 91 1008.5
20260509093240 6 0 0.0 1.6 0.00 0.36 0.00 91 1008.4
20260509092739 6 0 0.0 3.2 0.00 0.36 0.00 91 1008.4
20260509092239 6 0 0.0 3.2 0.00 0.36 0.00 91 1008.4
20260509091958 6 0 0.0 1.6 0.00 0.36 0.00 91 1008.3
20260509091239 6 0 0.0 3.2 0.00 0.36 0.00 90 1008.3
20260509090740 6 0 0.0 3.2 0.00 0.36 0.00 90 1008.4
20260509090250 6 0 0.0 3.2 0.00 0.36 0.00 90 1008.4
20260509085739 6 0 1.6 3.2 0.00 0.36 0.00 90 1008.4
20260509085240 6 164 0.0 3.2 0.00 0.36 0.00 90 1008.4
20260509085004 6 0 0.0 1.6 0.00 0.36 0.00 89 1008.6
20260509084238 6 0 0.0 1.6 0.00 0.36 0.00 89 1008.7
20260509084218 6 0 0.0 1.6 0.00 0.36 0.00 89 1008.8
20260509083234 6 165 0.0 3.2 0.00 0.36 0.00 88 1008.8
20260509082734 6 0 0.0 3.2 0.00 0.36 0.00 87 1008.9
20260509082235 6 0 0.0 3.2 0.00 0.36 0.00 87 1008.9
20260509081733 6 0 1.6 3.2 0.00 0.36 0.00 86 1009.0
20260509081229 6 183 1.6 4.8 0.00 0.36 0.00 86 1009.1
20260509080731 6 192 3.2 4.8 0.00 0.36 0.00 85 1009.1
20260509080230 6 166 1.6 4.8 0.00 0.36 0.00 84 1009.1
20260509080000 6 163 0.0 4.8 0.00 0.36 0.00 87 1009.2
20260509075230 6 0 1.6 8.0 0.00 0.36 0.00 86 1009.1
20260509075007 6 0 3.2 8.0 0.00 0.36 0.00 87 1009.2
20260509074231 6 198 3.2 6.4 0.00 0.36 0.00 88 1009.3
20260509073949 5 175 1.6 6.4 0.00 0.36 0.00 90 1009.3
20260509073230 5 180 0.0 3.2 0.00 0.36 0.00 92 1009.3
20260509072729 5 142 0.0 3.2 0.00 0.36 0.00 92 1009.4
20260509072229 5 157 0.0 3.2 0.00 0.36 0.00 92 1009.5
20260509071724 5 193 0.0 3.2 0.00 0.36 0.00 91 1009.6
20260509071223 5 0 0.0 1.6 0.00 0.36 0.00 90 1009.5
20260509070946 5 0 0.0 1.6 0.00 0.36 0.00 90 1009.5
20260509070447 5 35 0.0 1.6 0.00 0.36 0.00 90 1009.5
20260509065723 5 30 0.0 3.2 0.00 0.36 0.00 89 1009.5
20260509065222 5 218 0.0 3.2 0.00 0.36 0.00 89 1009.6
20260509064724 5 0 0.0 3.2 0.00 0.36 0.00 89 1009.6
20260509064224 6 0 1.6 3.2 0.00 0.36 0.00 88 1009.6
20260509063943 6 321 1.6 3.2 0.00 0.36 0.00 89 1009.7
20260509063216 6 334 1.6 3.2 0.00 0.36 0.00 88 1009.7
20260509062715 6 239 1.6 3.2 0.00 0.36 0.00 88 1009.8
20260509062215 6 257 1.6 3.2 0.00 0.36 0.00 88 1009.7
20260509061715 6 237 0.0 3.2 0.00 0.36 0.00 89 1009.8
20260509061215 6 0 0.0 1.6 0.00 0.36 0.00 87 1009.8
20260509060713 6 307 0.0 1.6 0.00 0.36 0.00 85 1009.8
20260509060435 6 0 0.0 0.0 0.00 0.36 0.00 84 1009.8
20260509055713 6 0 0.0 0.0 0.00 0.36 0.00 86 1009.9
20260509055213 6 0 0.0 0.0 0.00 0.36 0.00 84 1010.1
20260509054714 7 0 0.0 0.0 0.00 0.36 0.00 84 1010.1
20260509054212 7 354 0.0 3.2 0.00 0.36 0.00 83 1010.1
20260509053712 7 0 0.0 4.8 0.00 0.38 0.00 82 1010.2
20260509053214 7 0 0.0 4.8 0.00 0.38 0.00 80 1010.2
20260509052709 7 0 1.6 4.8 0.00 0.41 0.00 80 1010.3
20260509052219 7 188 1.6 6.4 0.00 0.43 0.00 81 1010.4
20260509051708 7 0 1.6 6.4 0.00 0.43 0.00 80 1010.4
20260509051206 7 0 1.6 6.4 0.00 0.43 0.00 80 1010.4
20260509050704 7 169 1.6 6.4 0.00 0.43 0.00 81 1010.5
20260509050204 7 161 1.6 6.4 0.00 0.43 0.00 80 1010.4
20260509045705 7 144 1.6 4.8 0.00 0.43 0.00 82 1010.5
20260509045203 6 165 0.0 4.8 0.00 0.43 0.00 81 1010.4
20260509044705 6 186 0.0 3.2 0.00 0.43 0.00 82 1010.5
20260509044204 6 0 0.0 3.2 0.00 0.43 0.00 81 1010.5
20260509043924 7 201 0.0 3.2 0.00 0.43 0.00 81 1010.5
20260509043204 7 0 0.0 3.2 0.00 0.43 0.00 80 1010.4
20260509042701 7 146 1.6 4.8 0.00 0.43 0.00 80 1010.4
20260509042428 7 0 1.6 4.8 0.00 0.43 0.00 79 1010.5
20260509041918 7 186 1.6 4.8 0.00 0.43 0.00 79 1010.5
20260509041431 6 163 0.0 4.8 0.00 0.43 0.00 79 1010.5
20260509040925 6 140 0.0 3.2 0.00 0.43 0.00 81 1010.6
20260509040202 6 261 0.0 3.2 0.00 0.43 0.00 79 1010.6
20260509035658 6 0 0.0 3.2 0.00 0.43 0.43 80 1010.6
20260509035201 6 193 0.0 1.6 0.00 0.43 0.43 81 1010.5
20260509034700 6 0 0.0 0.0 0.00 0.43 0.43 80 1010.5
20260509034200 6 0 0.0 1.6 0.00 0.43 0.43 80 1010.6
20260509033700 6 0 0.0 1.6 0.00 0.43 0.43 79 1010.6
20260509033201 6 0 0.0 0.0 0.00 0.43 0.43 84 1010.6
20260509032659 6 0 0.0 0.0 0.00 0.43 0.43 83 1010.6
20260509032200 6 0 0.0 1.6 0.00 0.43 0.43 83 1010.6
20260509032147 6 0 0.0 1.6 0.00 0.43 0.43 82 1010.6
20260509031159 6 0 0.0 0.0 0.00 0.43 0.43 83 1010.6
20260509030658 6 0 0.0 1.6 0.00 0.43 0.43 81 1010.5
20260509030158 6 197 0.0 1.6 0.00 0.43 0.43 82 1010.6
20260509025657 7 0 0.0 1.6 0.00 0.43 0.43 78 1010.6
20260509025156 7 0 0.0 1.6 0.00 0.43 0.43 77 1010.6
20260509024658 7 127 0.0 1.6 0.00 0.43 0.43 75 1010.6
20260509024157 7 0 0.0 1.6 0.00 0.43 0.43 76 1010.7
20260509023919 7 118 0.0 1.6 0.00 0.43 0.43 78 1010.7
20260509023158 7 0 0.0 0.0 0.00 0.43 0.43 77 1010.8
20260509022657 7 0 0.0 1.6 0.00 0.43 0.43 77 1010.8
20260509022158 7 0 0.0 1.6 0.00 0.43 0.43 75 1010.8
20260509021658 7 0 0.0 1.6 0.00 0.43 0.43 75 1010.8
20260509021159 7 0 0.0 1.6 0.00 0.43 0.43 75 1010.8
20260509020917 7 0 0.0 0.0 0.00 0.43 0.43 73 1010.8
20260509020158 8 0 0.0 0.0 0.00 0.43 0.43 73 1010.8
20260509015658 8 0 0.0 1.6 0.00 0.43 0.43 72 1010.8
20260509015156 8 0 0.0 1.6 0.00 0.43 0.43 74 1010.7
20260509014931 8 0 0.0 0.0 0.00 0.43 0.43 73 1010.7
20260509014413 8 0 0.0 0.0 0.00 0.43 0.43 73 1010.7
20260509013654 8 0 0.0 0.0 0.00 0.43 0.43 73 1010.6
20260509013154 8 0 0.0 1.6 0.00 0.43 0.43 72 1010.6
20260509012654 8 0 0.0 3.2 0.00 0.43 0.43 71 1010.5
20260509012152 8 29 0.0 3.2 0.00 0.43 0.43 71 1010.4
20260509011653 9 18 0.0 1.6 0.00 0.43 0.43 68 1010.4
20260509011152 9 0 0.0 0.0 0.00 0.43 0.43 66 1010.3
20260509010653 9 0 0.0 1.6 0.00 0.43 0.43 64 1010.2
20260509010152 9 0 0.0 1.6 0.00 0.43 0.43 63 1010.1
20260509005652 10 0 0.0 1.6 0.00 0.43 0.43 62 1010.0
20260509005154 10 0 0.0 1.6 0.00 0.43 0.43 61 1009.9
20260509004650 10 0 0.0 1.6 0.00 0.43 0.43 60 1009.9
20260509004151 10 0 0.0 1.6 0.00 0.43 0.43 59 1009.8
20260509003649 10 0 0.0 1.6 0.00 0.43 0.43 58 1009.8
20260509003149 10 0 0.0 1.6 0.00 0.43 0.43 57 1009.8
20260509002650 10 0 0.0 3.2 0.00 0.43 0.43 55 1009.7
20260509002149 10 0 0.0 3.2 0.00 0.43 0.43 54 1009.7
20260509001917 11 152 0.0 3.2 0.00 0.43 0.43 59 1009.7
20260509001148 11 161 0.0 3.2 0.00 0.43 0.43 54 1009.7
20260509000914 11 0 0.0 1.6 0.00 0.43 0.43 51 1009.6
20260509000148 11 149 0.0 1.6 0.00 0.43 0.43 49 1009.6
20260508235907 12 138 0.0 3.2 0.00 0.43 0.43 47 1009.5
20260508235144 12 0 0.0 3.2 0.00 0.43 0.43 47 1009.5
20260508234644 12 2 1.6 4.8 0.00 0.43 0.43 46 1009.4
20260508234142 12 262 3.2 6.4 0.00 0.43 0.43 45 1009.4
20260508233643 13 12 3.2 6.4 0.00 0.43 0.43 43 1009.3
20260508233143 13 24 1.6 6.4 0.00 0.43 0.43 42 1009.3
20260508232643 13 320 1.6 8.0 0.00 0.43 0.43 42 1009.3
20260508232142 13 0 3.2 8.0 0.00 0.43 0.43 42 1009.3
20260508231638 13 357 3.2 6.4 0.00 0.43 0.43 41 1009.3
20260508231137 13 340 3.2 8.0 0.00 0.43 0.43 42 1009.3
20260508230633 13 38 3.2 9.7 0.00 0.43 0.43 40 1009.3
20260508230133 14 314 3.2 9.7 0.00 0.43 0.43 41 1009.3
20260508225854 14 0 3.2 9.7 0.00 0.43 0.43 40 1009.3
20260508225131 13 30 3.2 9.7 0.00 0.43 0.43 40 1009.3
20260508224856 13 359 3.2 9.7 0.00 0.43 0.43 39 1009.3
20260508224407 13 352 4.8 12.9 0.00 0.43 0.43 41 1009.3
20260508223631 13 270 4.8 12.9 0.00 0.43 0.43 42 1009.3
20260508223400 13 358 3.2 9.7 0.00 0.43 0.43 40 1009.3
20260508222631 14 23 3.2 12.9 0.00 0.43 0.43 40 1009.3
20260508222132 14 348 3.2 12.9 0.00 0.43 0.43 42 1009.3
20260508221633 14 26 3.2 14.5 0.00 0.43 0.43 39 1009.3
20260508221132 13 3 4.8 14.5 0.00 0.43 0.43 41 1009.4
20260508220628 13 48 3.2 11.3 0.00 0.43 0.43 44 1009.5
20260508220353 13 60 3.2 11.3 0.00 0.43 0.43 44 1009.5
20260508215627 13 39 4.8 11.3 0.00 0.43 0.43 42 1009.5
20260508215126 13 61 4.8 12.9 0.00 0.43 0.43 44 1009.5
20260508214629 14 178 4.8 12.9 0.00 0.43 0.43 43 1009.6
20260508214619 14 0 4.8 9.7 0.00 0.43 0.43 42 1009.6
20260508213627 14 338 3.2 9.7 0.00 0.43 0.43 42 1009.6
20260508213127 14 25 3.2 14.5 0.00 0.43 0.43 41 1009.6
20260508212627 13 25 4.8 14.5 0.00 0.43 0.43 42 1009.7
20260508212127 13 4 6.4 16.1 0.00 0.43 0.43 41 1009.7
20260508211626 13 300 6.4 16.1 0.00 0.43 0.43 42 1009.7
20260508211124 13 33 6.4 14.5 0.00 0.43 0.43 44 1009.6
20260508210623 13 117 4.8 14.5 0.00 0.43 0.43 45 1009.7
20260508210121 13 156 4.8 14.5 0.00 0.43 0.43 46 1009.8
20260508205621 13 353 6.4 14.5 0.00 0.43 0.43 45 1009.8
20260508205121 13 35 8.0 16.1 0.00 0.43 0.43 46 1009.8
20260508204621 13 311 6.4 16.1 0.00 0.43 0.43 45 1009.8
20260508204338 14 42 4.8 12.9 0.00 0.43 0.43 44 1009.9
20260508203621 14 270 4.8 12.9 0.00 0.43 0.43 42 1010.0
20260508203122 14 215 4.8 12.9 0.00 0.43 0.43 43 1010.1
20260508202839 13 20 4.8 11.3 0.00 0.43 0.43 45 1010.1
20260508202121 13 251 4.8 11.3 0.00 0.43 0.43 44 1010.1
20260508201622 13 313 3.2 11.3 0.00 0.43 0.43 44 1010.2
20260508201122 13 260 4.8 12.9 0.00 0.43 0.43 46 1010.2
20260508200622 13 201 4.8 12.9 0.00 0.43 0.43 45 1010.2
20260508200118 12 147 4.8 12.9 0.00 0.43 0.43 47 1010.2
20260508195618 12 142 6.4 20.9 0.00 0.43 0.43 50 1010.4
20260508195117 12 330 6.4 20.9 0.00 0.43 0.43 51 1010.5
20260508194616 12 276 4.8 16.1 0.00 0.43 0.43 50 1010.6
20260508194117 12 77 3.2 14.5 0.00 0.43 0.43 47 1010.6
20260508193613 12 269 4.8 14.5 0.00 0.43 0.43 48 1010.6
20260508193339 12 261 3.2 11.3 0.00 0.43 0.43 50 1010.8
20260508192612 12 0 3.2 11.3 0.00 0.43 0.43 52 1010.8
20260508192112 12 334 3.2 12.9 0.00 0.43 0.43 50 1010.8
20260508191612 12 254 4.8 14.5 0.00 0.43 0.43 51 1010.8
20260508191113 12 299 6.4 14.5 0.00 0.43 0.43 53 1010.8
20260508190613 12 315 6.4 14.5 0.00 0.43 0.43 52 1010.7
20260508190113 12 304 4.8 12.9 0.00 0.43 0.43 53 1010.7
20260508185612 12 237 3.2 12.9 0.00 0.43 0.43 53 1010.7
20260508185112 12 312 4.8 14.5 0.00 0.43 0.43 55 1010.8
20260508184611 12 309 6.4 17.7 0.00 0.43 0.43 55 1010.9
20260508184111 12 348 4.8 17.7 0.00 0.43 0.43 52 1010.9
20260508183612 11 237 4.8 14.5 0.00 0.43 0.43 56 1010.9
20260508183111 11 326 6.4 14.5 0.00 0.43 0.43 60 1011.0
20260508182835 11 309 4.8 14.5 0.00 0.43 0.43 60 1011.1
20260508182112 11 356 3.2 12.9 0.00 0.43 0.43 59 1011.1
20260508181612 10 0 6.4 14.5 0.00 0.43 0.43 61 1011.2
20260508181112 10 242 8.0 14.5 0.00 0.43 0.43 61 1011.3
20260508180608 10 45 6.4 14.5 0.00 0.43 0.43 64 1011.3
20260508180331 10 209 4.8 14.5 0.00 0.43 0.43 66 1011.4
20260508175830 10 253 6.4 14.5 0.00 0.43 0.43 66 1011.4
20260508175108 10 237 6.4 14.5 0.00 0.43 0.43 66 1011.4
20260508174608 10 276 6.4 14.5 0.00 0.43 0.43 69 1011.4
20260508174108 10 198 6.4 17.7 0.00 0.43 0.43 69 1011.5
20260508173608 10 225 6.4 17.7 0.00 0.43 0.43 69 1011.5
20260508173108 10 248 6.4 17.7 0.00 0.43 0.43 71 1011.6
20260508172608 10 267 6.4 17.7 0.00 0.43 0.43 71 1011.5
20260508172108 10 200 6.4 16.1 0.00 0.43 0.43 71 1011.6
20260508171609 9 217 8.0 16.1 0.00 0.43 0.43 70 1011.7
20260508171109 9 261 8.0 16.1 0.00 0.43 0.43 73 1011.7
20260508170610 9 280 6.4 17.7 0.00 0.43 0.43 76 1011.8
20260508170114 9 236 6.4 17.7 0.00 0.43 0.43 74 1011.9
20260508165607 8 230 8.0 17.7 0.00 0.43 0.43 78 1012.0
20260508165333 8 270 8.0 17.7 0.00 0.43 0.43 75 1012.0
20260508164607 8 250 8.0 19.3 0.00 0.43 0.43 76 1012.0
20260508164107 8 239 9.7 19.3 0.00 0.43 0.43 75 1012.1
20260508163607 8 290 8.0 14.5 0.00 0.43 0.43 78 1012.1
20260508163109 8 190 6.4 14.5 0.00 0.43 0.43 78 1012.1
20260508162827 8 232 6.4 14.5 0.00 0.43 0.43 78 1012.1
20260508162107 8 223 6.4 16.1 0.00 0.43 0.43 79 1012.1
20260508161619 8 249 6.4 16.1 0.00 0.43 0.43 80 1012.2
20260508161108 7 229 6.4 14.5 0.00 0.43 0.43 81 1012.2
20260508160608 8 246 6.4 14.5 0.00 0.43 0.43 81 1012.2
20260508160116 8 224 4.8 12.9 0.00 0.43 0.43 83 1012.3
20260508155605 7 254 4.8 12.9 0.00 0.43 0.43 85 1012.3
20260508155104 7 186 4.8 11.3 0.00 0.43 0.43 86 1012.3
20260508154606 7 254 3.2 9.7 0.00 0.43 0.43 87 1012.3
20260508154104 7 88 3.2 8.0 0.00 0.43 0.43 87 1012.3
20260508153602 7 150 3.2 6.4 0.00 0.43 0.43 86 1012.3
20260508153102 7 70 1.6 8.0 0.00 0.43 0.43 90 1012.3
20260508152604 7 225 3.2 8.0 0.00 0.43 0.43 91 1012.3
20260508152102 7 206 3.2 8.0 0.00 0.43 0.43 91 1012.3
20260508151602 6 187 3.2 8.0 0.00 0.43 0.43 93 1012.3
20260508151103 6 209 3.2 8.0 0.00 0.43 0.43 92 1012.4
20260508150613 6 156 3.2 6.4 0.00 0.43 0.43 96 1012.5
20260508150328 6 175 3.2 6.4 0.00 0.43 0.43 94 1012.5
20260508145600 5 174 3.2 6.4 0.00 0.43 0.43 96 1012.4
20260508145100 5 206 3.2 6.4 0.00 0.43 0.43 99 1012.4
20260508144600 5 134 3.2 6.4 0.00 0.43 0.43 98 1012.5
20260508144100 5 151 3.2 4.8 0.03 0.43 0.43 99 1012.5
20260508143600 5 46 3.2 4.8 0.03 0.43 0.43 99 1012.6
20260508143100 5 48 3.2 6.4 0.03 0.43 0.43 99 1012.6
20260508142556 5 332 3.2 6.4 0.05 0.43 0.43 99 1012.6
20260508142055 5 141 3.2 6.4 0.10 0.43 0.43 99 1012.6
20260508142036 5 17 3.2 6.4 0.15 0.43 0.43 99 1012.7
20260508141051 4 0 1.6 6.4 0.18 0.43 0.43 98 1012.6
20260508140552 5 34 1.6 4.8 0.20 0.43 0.43 98 1012.5
20260508140104 4 0 3.2 6.4 0.25 0.43 0.43 98 1012.5
20260508135551 4 37 3.2 6.4 0.30 0.43 0.43 97 1012.5
20260508135052 5 76 3.2 8.0 0.30 0.43 0.43 99 1012.5
20260508134552 5 28 4.8 11.3 0.30 0.43 0.43 99 1012.5
20260508134320 5 24 3.2 11.3 0.33 0.41 0.41 97 1012.4
20260508134045 5 16 1.6 8.0 0.33 0.41 0.41 98 1012.4
20260508133315 5 0 3.2 12.9 0.33 0.41 0.41 97 1012.5
20260508132546 5 334 4.8 14.5 0.30 0.38 0.38 96 1012.5
20260508132047 5 296 4.8 14.5 0.25 0.33 0.33 94 1012.5
20260508131547 5 324 4.8 9.7 0.20 0.28 0.28 96 1012.5
20260508131046 5 329 3.2 8.0 0.18 0.23 0.23 95 1012.5
20260508130546 5 347 3.2 11.3 0.15 0.23 0.23 97 1012.3
20260508130324 6 275 3.2 11.3 0.10 0.18 0.18 98 1012.2
20260508125547 6 242 3.2 6.4 0.05 0.13 0.15 99 1012.1
20260508125046 6 0 3.2 6.4 0.05 0.13 0.13 99 1012.0
20260508124548 6 274 3.2 6.4 0.05 0.10 0.10 99 1011.9
20260508124047 6 293 3.2 6.4 0.03 0.10 0.10 98 1011.8
20260508123804 6 279 3.2 6.4 0.00 0.08 0.08 97 1011.7
20260508123312 6 262 3.2 6.4 0.00 0.08 0.08 98 1011.6
20260508122545 6 241 3.2 6.4 0.00 0.08 0.08 97 1011.5
20260508122041 6 254 3.2 6.4 0.00 0.08 0.08 97 1011.4
20260508121541 6 276 3.2 6.4 0.00 0.08 0.08 97 1011.3
20260508121041 6 233 1.6 6.4 0.00 0.08 0.08 97 1011.3
20260508120811 6 327 1.6 3.2 0.00 0.08 0.08 98 1011.2
20260508120054 6 269 1.6 3.2 0.00 0.08 0.08 99 1011.1
20260508115541 5 177 1.6 3.2 0.00 0.08 0.08 99 1011.0
20260508115042 5 197 0.0 3.2 0.00 0.08 0.08 100 1010.9
20260508114542 5 112 0.0 3.2 0.00 0.08 0.08 99 1010.8
20260508114043 5 40 1.6 8.0 0.00 0.08 0.08 100 1010.9